Regional Weather Roundup
Issued by NWS Sioux Falls, SD

Home | Current Version | Previous Version | Graphics & Text | Print | Product List | Glossary Off
Versions: 1 2 3 4 5 6 7 8 9 10 11 12 13 14 15 16 17 18 19 20 21 22 23 24 25 26 27 28 29 30 31 32 33 34 35 36 37 38 39 40 41 42 43 44 45 46 47 48 49 50

000
ASUS43 KFSD 260110
RWRFSD

WEATHER ROUNDUP FOR SE SOUTH DAKOTA/SW MINNESOTA/NW IOWA
NATIONAL WEATHER SERVICE SIOUX FALLS SD
800 PM CDT FRI JUL 25 2014

NOTE: "FAIR" INDICATES FEW OR NO CLOUDS BELOW 12,000 FEET WITH NO
SIGNIFICANT WEATHER AND OR OBSTRUCTIONS TO VISIBILITY.


SDZ038>040-050-052>070-260200-
SOUTHEAST SOUTH DAKOTA

CITY           SKY/WX    TMP DP  RH WIND       PRES   REMARKS
CHAMBERLAIN    SUNNY     81  69  66 NE10      29.80R
HURON          CLOUDY    78  67  68 NE6       29.79S
MADISON        FAIR      77  73  88 N7        29.80S
MITCHELL       PTCLDY    80  69  69 N9        29.79S
SIOUX FALLS    PTCLDY    82  70  66 N3        29.77R
WINNER         FAIR      87  67  51 NE6       29.81R
YANKTON        PTCLDY    82  75  78 E5        29.76R
$$

MNZ071-072-080-081-089-090-097-098-260200-
SOUTHWEST MINNESOTA

CITY           SKY/WX    TMP DP  RH WIND       PRES   REMARKS
FAIRMONT       CLOUDY    77  63  61 S7        29.79R
JACKSON        CLEAR     79  68  69 S6        29.79S
LUVERNE        CLEAR     82  70  65 CALM      29.78R
MARSHALL       CLOUDY    79  72  78 N6          N/A
MONTEVIDEO     CLOUDY    79  72  78 N6        29.78R
PIPESTONE      CLOUDY    81  70  69 CALM      29.80R
REDWOOD FALLS  CLOUDY    82  72  71 N6        29.75R
TRACY          CLOUDY    80  72  77 N5        29.78R
WINDOM         CLEAR     81  72  74 S3        29.78R
WORTHINGTON    CLEAR     79  72  78 S5        29.80S
$$

IAZ001>003-012>014-020>022-031-032-NEZ013-014-SDZ071-260200-
NORTHWEST IOWA

CITY           SKY/WX    TMP DP  RH WIND       PRES   REMARKS
CHEROKEE       CLOUDY    78  73  84 CALM      29.77S
DENISON        CLOUDY    82  77  83 E3        29.74F
ESTHERVILLE    CLOUDY    75  70  84 S6        29.79S
LE MARS        CLOUDY    81  73  78 E6        29.76F
ORANGE CITY    CLOUDY    81  72  74 E5        29.78S
SHELDON        CLOUDY    77  72  83 SE5       29.77F
SIOUX CITY     CLEAR     83  73  72 E7        29.75S
SPENCER        CLOUDY    77  71  82 S5        29.79F
STORM LAKE     CLOUDY    75  73  94 E5        29.79F
$$

ABBREVIATIONS USED IN REMARKS
   TC - TEMPERATURE IN CELSIUS
  WCI - WIND CHILL INDEX
   HX - HEAT INDEX
  VSB - VISIBILITY




USA.gov is the U.S. government's official web portal to all federal, state and local government web resources and services.